sat.trackr.live / text

‹ back to catalog

UNKNOWN

NORAD 84006

UNKNOWN UNKNOWN UNKNOWN

§ Identity

Operator
Country
Launch date
Launch site
Launch vehicle
Mass (kg)
RCS (m²)

External: N2YO · Heavens-Above

§ Orbital elements

Epoch: 2026-09-13T05:29:43.459008Z

Period
665.95 min
Inclination
22.7852°
Eccentricity
0.6141657
Mean motion
2.16231766 rev/d
Perigee alt
3,368.5 km
Apogee alt
34,397.8 km
Semi-major
25,261.3 km
B*
0.0000e+0
RAAN
121.5706°
Arg perigee
156.6694°
Mean anomaly
250.9979°
Rev number
9,016

§ Raw data

UNKNOWN1 84006U          26256.22897522 -.00000032  00000+0  00000+0 0  99902 84006  22.7852 121.5706 6141657 156.6694 250.9979  2.16231766 90166

JSON: /api/v1/satellites/84006 · /tle

For live sub-satellite position, see the globe view (requires WebGL).

§ Visibility from observer

Set your observer location to see the next 7 days of passes ≥ 10°. The values pass through the URL so the page stays shareable.

No JS? Fill the form by hand. The geolocation button needs JavaScript.